Weather History for KPSP - January, 2014

Change the Weather History Date:

Tuesday, January 14, 2014

  Actual Average Record
Temperature  
Mean Temperature 68 °F 58 °F  
Max Temperature 83 °F 69 °F 91 °F (1943)
Min Temperature 52 °F 46 °F 22 °F (1963)
Degree Days  
Heating Degree Days 0 8  
Month to date heating degree days 63 118  
Since 1 July heating degree days 344 504  
Cooling Degree Days 3 0  
Month to date cooling degree days 3 0  
Year to date cooling degree days 3 0  
Growing Degree Days 18 (Base 50)    
Moisture  
Dew Point 8 °F    
Average Humidity 12    
Maximum Humidity 20    
Minimum Humidity 4    
Precipitation  
Precipitation 0.00 in 0.03 in 0.41 in (1993)
Month to date precipitation 0.00 0.62  
Year to date precipitation 0.00 0.62  
Since 1 July precipitation 1.26 3.42  
Snow  
Snow 0.00 in - - ()
Month to date snowfall 0.0  
Year to date snowfall 0.0  
Since 1 July snowfall 0.0  
Snow Depth 0.00 in    
Sea Level Pressure  
Sea Level Pressure 30.33 in    
Wind  
Wind Speed 7 mph (WNW)    
Max Wind Speed 21 mph    
Max Gust Speed 25 mph    
Visibility 10 miles    
Events      
T = Trace of Precipitation, MM = Missing Value Source: NWS Daily Summary

Daily Weather History Graph

Daily Weather History Graph

Search for Another Location

Airport or City:

Trip Planner

Search our weather history database for the weather conditions in past years. The results will help you decide how hot, cold, wet, or windy it might be!

Date:

Astronomy

Jan. 14, 2014 Rise Set
Actual Time 6:51 AM PST 4:59 PM PST
Civil Twilight 6:23 AM PST 5:26 PM PST
Nautical Twilight 5:53 AM PST 5:57 PM PST
Astronomical Twilight 5:23 AM PST 6:27 PM PST
Moon 4:07 PM PST (1/14) 5:30 AM PST (1/14)
Length of Visible Light 11h 02m
Length of Day
10h 08m
Waxing Gibbous, 98% of the Moon is Illuminated
Jan 14
Waxing Gibbous
Jan 15
Full
Jan 23
Last Quarter
Jan 30
New
Feb 6
First Quarter

Hourly Weather History & Observations

Time (PST) Temp. Dew Point Humidity Pressure Visibility Wind Dir Wind Speed Gust Speed Precip Events Conditions
12:53 AM 64.0 °F 16.0 °F 16% 30.32 in 10.0 mi SW 6.9 mph - N/A   Clear
1:53 AM 61.0 °F 15.1 °F 17% 30.33 in 10.0 mi Calm Calm - N/A   Clear
2:53 AM 59.0 °F 16.0 °F 19% 30.33 in 10.0 mi West 4.6 mph - N/A   Clear
3:53 AM 60.1 °F 15.1 °F 17% 30.32 in 10.0 mi SW 6.9 mph - N/A   Clear
4:53 AM 55.9 °F 15.1 °F 20% 30.33 in 10.0 mi SSW 5.8 mph - N/A   Clear
5:53 AM 59.0 °F 15.1 °F 18% 30.35 in 10.0 mi Variable 5.8 mph - N/A   Clear
6:53 AM 55.9 °F 14.0 °F 19% 30.36 in 10.0 mi Calm Calm - N/A   Clear
7:53 AM 64.0 °F 14.0 °F 14% 30.37 in 10.0 mi SSW 8.1 mph - N/A   Clear
8:53 AM 75.0 °F 6.1 °F 7% 30.38 in 10.0 mi West 4.6 mph - N/A   Clear
9:53 AM 78.1 °F 3.0 °F 5% 30.38 in 10.0 mi Variable 3.5 mph - N/A   Clear
10:53 AM 79.0 °F 3.0 °F 5% 30.35 in 10.0 mi WNW 6.9 mph - N/A   Clear
11:53 AM 81.0 °F 1.9 °F 5% 30.32 in 10.0 mi NNE 6.9 mph - N/A   Clear
12:53 PM 82.0 °F 1.0 °F 4% 30.30 in 10.0 mi NNE 16.1 mph - N/A   Clear
1:06 PM 82.4 °F 1.4 °F 4% 30.30 in 10.0 mi NE 12.7 mph - N/A   Clear
1:53 PM 82.9 °F -0.0 °F 4% 30.29 in 10.0 mi North 9.2 mph - N/A   Clear
2:53 PM 82.9 °F -0.9 °F 4% 30.29 in 10.0 mi North 15.0 mph 19.6 mph N/A   Clear
3:53 PM 81.0 °F -0.9 °F 4% 30.29 in 10.0 mi NW 10.4 mph - N/A   Clear
4:53 PM 77.0 °F 3.9 °F 6% 30.30 in 10.0 mi NW 6.9 mph - N/A   Clear
5:53 PM 73.0 °F 5.0 °F 7% 30.30 in 10.0 mi NE 4.6 mph - N/A   Clear
6:53 PM 73.0 °F 7.0 °F 8% 30.31 in - NE 9.2 mph - N/A   Unknown
7:53 PM 68.0 °F 10.0 °F 11% 30.33 in 10.0 mi SSW 3.5 mph - N/A   Clear
8:53 PM 68.0 °F 8.1 °F 10% 30.34 in 10.0 mi WSW 5.8 mph - N/A   Clear
9:53 PM 68.0 °F 9.0 °F 10% 30.33 in 10.0 mi WSW 6.9 mph - N/A   Clear
10:53 PM 66.9 °F 9.0 °F 10% 30.32 in 10.0 mi WNW 9.2 mph - N/A   Clear
11:53 PM 66.0 °F 10.0 °F 11% 30.30 in 10.0 mi WNW 6.9 mph - N/A   Clear